EW9487 Weather Reports


time (UTC)temp
C
wind
direction
speed
KPH
gust
KPH
rain 1hr
cm
rain 24hr
cm
rain mn
cm
humidity
%
barometer
mb
20260507180023 12 11 0.0 1.6 0.03 0.15 0.00 37 1009.9
20260507174523 12 78 1.6 6.4 0.03 0.15 0.15 32 1009.6
20260507173038 12 359 0.0 4.8 0.05 0.15 0.15 34 1010.2
20260507171523 12 248 0.0 1.6 0.05 0.15 0.15 33 1010.4
20260507170013 11 354 0.0 1.6 0.03 0.13 0.13 36 1010.3
20260507164516 11 1 0.0 6.4 0.03 0.13 0.13 45 1010.4
20260507163007 12 335 1.6 6.4 0.00 0.10 0.10 50 1010.8
20260507161505 12 24 1.6 6.4 0.00 0.10 0.10 42 1010.7
20260507160003 13 359 0.0 0.0 0.00 0.10 0.10 29 1010.5
20260507154602 13 295 0.0 6.4 0.00 0.18 0.10 28 1010.7
20260507153101 13 313 0.0 0.0 0.00 0.18 0.10 28 1010.8
20260507151603 13 354 0.0 0.0 0.00 0.18 0.10 30 1010.2
20260507150057 13 104 0.0 1.6 0.00 0.18 0.10 29 1010.5
20260507144525 13 34 0.0 4.8 0.03 0.18 0.10 28 1010.5
20260507143023 13 1 0.0 0.0 0.03 0.18 0.10 25 1010.0
20260507141558 13 10 0.0 6.4 0.03 0.18 0.10 24 1010.4
20260507140049 14 317 0.0 0.0 0.03 0.18 0.10 21 1010.9
20260507134551 14 1 0.0 4.8 0.00 0.15 0.08 20 1010.6
20260507133118 14 127 0.0 0.0 0.00 0.15 0.08 20 1010.4
20260507131547 14 253 0.0 0.0 0.00 0.15 0.08 20 1010.2
20260507130058 14 229 0.0 0.0 0.00 0.15 0.08 20 1010.0
20260507124513 13 357 0.0 0.0 0.00 0.15 0.08 20 1010.4
20260507123015 13 39 0.0 3.2 0.00 0.15 0.08 20 1009.9
20260507121510 13 44 0.0 4.8 0.00 0.15 0.08 20 1009.6
20260507120009 -17 0.0 0.0 0.00 0.15 0.08 1010.2
20260507114504 -17 0.0 0.0 0.00 0.15 0.08 1010.3
20260507113059 -17 0.0 0.0 0.00 0.15 0.08 1009.7
20260507111552 -17 0.0 0.0 0.00 0.15 0.08 1009.6
20260507110047 -17 0.0 0.0 0.00 0.15 0.08 1009.5
20260507104543 -17 0.0 0.0 0.00 0.15 0.08 1009.7
20260507103044 -17 0.0 0.0 0.00 0.15 0.08 1008.6
20260507101506 -17 0.0 0.0 0.00 0.15 0.08 1008.8
20260507100100 -17 0.0 0.0 0.00 0.15 0.08 1008.5
20260507094559 -17 0.0 0.0 0.00 0.15 0.08 1008.6
20260507093049 -17 0.0 0.0 0.03 0.15 0.08 1008.8
20260507091546 18 159 0.0 0.0 0.03 0.15 0.08 13 1008.9
20260507090045 19 165 0.0 0.0 0.03 0.15 0.08 12 1009.2
20260507084514 19 165 0.0 0.0 0.03 0.15 0.08 13 1008.4
20260507083013 19 165 0.0 0.0 0.00 0.13 0.05 13 1008.3
20260507081509 19 165 0.0 0.0 0.00 0.13 0.05 13 1008.0
20260507080007 19 165 0.0 0.0 0.00 0.13 0.05 14 1008.0
20260507074506 19 179 0.0 0.0 0.00 0.13 0.05 15 1008.2
20260507073005 19 183 0.0 0.0 0.00 0.13 0.05 15 1008.1
20260507071503 19 183 0.0 0.0 0.00 0.13 0.05 16 1008.4
20260507070002 19 286 0.0 0.0 0.00 0.13 0.05 17 1008.8
20260507064501 19 171 0.0 3.2 0.00 0.13 0.05 19 1008.4
20260507063101 19 168 0.0 0.0 0.00 0.13 0.05 21 1008.3
20260507061557 19 147 0.0 0.0 0.03 0.13 0.05 24 1008.6
20260507060059 19 196 0.0 0.0 0.05 0.13 0.05 27 1008.7
20260507054553 19 170 0.0 0.0 0.05 0.13 0.05 33 1008.6
20260507053058 20 167 0.0 0.0 0.05 0.13 0.05 42 1008.7
20260507051546 20 184 0.0 0.0 0.03 0.10 0.03 52 1009.3
20260507050046 20 225 0.0 6.4 0.00 0.08 0.00 58 1009.4
20260507044558 20 176 0.0 3.2 0.00 0.08 0.00 60 1009.8
20260507043048 20 172 0.0 0.0 0.00 0.08 0.00 60 1010.0
20260507041545 20 221 0.0 0.0 0.00 0.08 0.00 61 1010.2
20260507040044 20 165 0.0 0.0 0.00 0.08 0.00 62 1009.7
20260507034544 20 211 0.0 0.0 0.00 0.08 0.00 62 1009.3
20260507033050 20 175 0.0 0.0 0.00 0.08 0.00 60 1009.1
20260507031553 20 186 0.0 0.0 0.00 0.08 0.00 56 1009.2
20260507030055 19 165 0.0 0.0 0.00 0.08 0.00 53 1009.3
20260507024559 19 165 0.0 0.0 0.00 0.08 0.00 55 1009.2
20260507023036 20 165 0.0 0.0 0.00 0.08 0.00 57 1009.3
20260507021537 20 165 0.0 0.0 0.00 0.08 0.00 57 1009.2
20260507020040 20 177 0.0 0.0 0.00 0.08 0.00 54 1009.6
20260507014542 19 155 0.0 0.0 0.00 0.08 0.00 51 1009.5
20260507013037 19 174 0.0 0.0 0.00 0.00 0.00 55 1009.4
20260507011534 20 174 0.0 0.0 0.00 0.08 0.00 60 1009.3
20260507010029 20 174 0.0 0.0 0.00 0.08 0.00 63 1009.1
20260507004523 20 174 0.0 0.0 0.00 0.08 0.00 65 1009.1
20260507003022 20 176 0.0 0.0 0.00 0.08 0.00 67 1009.2
20260507001527 21 158 0.0 0.0 0.00 0.08 0.00 69 1009.1
20260507000054 21 197 0.0 0.0 0.00 0.08 0.00 70 1009.6
20260506234604 21 178 0.0 0.0 0.00 0.08 0.00 70 1009.3
20260506233052 21 162 0.0 0.0 0.00 0.08 0.00 71 1009.1
20260506231554 22 166 0.0 0.0 0.00 0.08 0.00 71 1009.0
20260506230047 22 168 0.0 0.0 0.00 0.08 0.00 71 1009.2
20260506224547 22 201 0.0 0.0 0.00 0.08 0.00 71 1009.1
20260506223044 22 210 0.0 0.0 0.00 0.08 0.00 71 1009.0
20260506221545 22 164 0.0 1.6 0.00 0.08 0.00 71 1009.0
20260506220043 23 179 0.0 0.0 0.00 0.08 0.00 70 1008.8
20260506214545 23 208 0.0 0.0 0.00 0.08 0.00 70 1008.9
20260506213040 23 170 0.0 0.0 0.00 0.08 0.00 69 1009.0
20260506211534 22 224 0.0 0.0 0.00 0.08 0.00 70 1009.1
20260506210034 22 183 0.0 4.8 0.00 0.08 0.00 70 1009.0
20260506204530 22 167 0.0 3.2 0.00 0.08 0.00 70 1008.8
20260506203058 22 159 1.6 9.7 0.00 0.08 0.00 70 1008.9
20260506201558 22 193 1.6 8.0 0.00 0.08 0.00 70 1008.8
20260506200054 22 148 1.6 8.0 0.00 0.08 0.00 70 1008.3
20260506194553 22 191 3.2 8.0 0.00 0.08 0.00 70 1008.2
20260506193049 22 156 3.2 16.1 0.00 0.08 0.00 70 1008.6
20260506191548 21 212 3.2 9.7 0.00 0.08 0.00 70 1008.7
20260506190043 21 155 3.2 9.7 0.00 0.08 0.00 70 1009.2
20260506184546 21 162 3.2 9.7 0.00 0.08 0.00 70 1009.6
20260506183034 21 195 3.2 8.0 0.00 0.08 0.00 70 1010.4
20260506181532 20 206 1.6 8.0 0.00 0.08 0.00 68 1010.9